Sault Ste Marie, MI

4:00 PM EDT on May 24, 2018 (GMT -0400)
Sault Ste Marie Municipal / Sanderson Field

Weather History for KANJ - October, 2011

Change the Weather History Date:

Thursday, October 27, 2011

  Actual Average Record
Temperature  
Mean Temperature 39 °F 42 °F  
Max Temperature 44 °F 49 °F 72 °F (1989)
Min Temperature 33 °F 35 °F 16 °F (1898)
Degree Days  
Heating Degree Days 26 23  
Month to date heating degree days 375 506  
Since 1 July heating degree days 616 907  
Cooling Degree Days 0 0  
Month to date cooling degree days 3 0  
Year to date cooling degree days 255 195  
Moisture  
Dew Point 34 °F    
Average Humidity 81    
Maximum Humidity 92    
Minimum Humidity 70    
Precipitation  
Precipitation 0.26 in 0.12 in 0.98 in (1979)
Month to date precipitation 3.82 3.33  
Year to date precipitation 31.98 26.32  
Snow  
Snow T in 0.10 in 7.00 in (1969)
Month to date snowfall T 1.1  
Since 1 July snowfall T 1.1  
Snow Depth 0.00 in    
Sea Level Pressure  
Sea Level Pressure 29.98 in    
Wind  
Wind Speed 3 mph (East)    
Max Wind Speed 8 mph    
Max Gust Speed 12 mph    
Visibility 10 miles    
Events Rain    
T = Trace of Precipitation, MM = Missing Value Source: NWS Daily Summary

Daily Weather History Graph

Daily Weather History Graph

Search for Another Location

Airport or City:

Astronomy

Oct. 27, 2011 Rise Set
Actual Time 8:11 AM EDT 6:30 PM EDT
Civil Twilight 7:40 AM EDT 7:01 PM EDT
Nautical Twilight 7:04 AM EDT 7:36 PM EDT
Astronomical Twilight 6:30 AM EDT 8:11 PM EDT
Moon 9:20 AM EDT (10/27) 6:50 PM EDT (10/27)
Length of Visible Light 11h 21m
Length of Day
10h 19m
New Moon, 1% of the Moon is Illuminated
Oct 27
New Moon
Nov 2
First Quarter
Nov 10
Full
Nov 18
Last Quarter
Nov 25
New

Hourly Weather History & Observations

Time (EDT) Temp. Windchill Dew Point Humidity Pressure Visibility Wind Dir Wind Speed Gust Speed Precip Events Conditions
12:55 AM 33.1 °F - 28.9 °F 85% 29.96 in 10.0 mi Calm Calm - N/A   Overcast
1:55 AM 35.1 °F - 30.0 °F 82% 29.96 in 10.0 mi Calm Calm - N/A   Mostly Cloudy
2:55 AM 37.0 °F 34.5 °F 32.0 °F 82% 29.94 in 10.0 mi ENE 3.5 mph - N/A   Overcast
3:55 AM 36.0 °F - 32.0 °F 86% 29.94 in 10.0 mi Calm Calm - N/A   Overcast
4:00 AM - - - N/A% - - North - - N/A   Unknown
4:55 AM 36.0 °F 32.1 °F 33.1 °F 89% 29.94 in 10.0 mi WNW 4.6 mph - 0.00 in Rain Light Rain
5:00 AM - - - N/A% - - North - - N/A   Unknown
5:25 AM 37.4 °F 33.8 °F 35.6 °F 93% 29.92 in 4.0 mi SSW 4.6 mph - 0.02 in Rain Heavy Rain
5:46 AM 37.4 °F 33.8 °F 33.8 °F 87% 29.93 in 10.0 mi South 4.6 mph - 0.05 in   Overcast
5:55 AM 37.9 °F - 34.0 °F 86% 29.94 in 10.0 mi Calm Calm - 0.05 in   Overcast
6:15 AM 37.4 °F 34.9 °F 33.8 °F 87% 29.92 in 10.0 mi ENE 3.5 mph - N/A   Overcast
6:55 AM 37.9 °F - 35.1 °F 89% 29.94 in 7.0 mi Calm Calm - 0.00 in Rain Light Rain
7:55 AM 37.9 °F 35.5 °F 35.1 °F 89% 29.94 in 4.0 mi NE 3.5 mph - 0.08 in Rain Rain
8:53 AM 37.4 °F - 35.6 °F 93% 29.95 in 10.0 mi Calm Calm - 0.09 in Rain Light Rain
8:55 AM 37.0 °F - 35.1 °F 93% 29.96 in 10.0 mi Calm Calm - 0.09 in Rain Light Rain
8:58 AM 37.4 °F - 35.6 °F 93% 29.94 in 10.0 mi Calm Calm - 0.00 in Rain Light Rain
9:19 AM 37.4 °F 33.8 °F 33.8 °F 87% 29.94 in 10.0 mi East 4.6 mph - 0.00 in   Overcast
9:53 AM 37.4 °F - 35.6 °F 93% 29.94 in 10.0 mi Calm Calm - 0.00 in   Overcast
9:55 AM 37.9 °F - 35.1 °F 89% 29.96 in 10.0 mi Calm Calm - 0.00 in   Overcast
10:02 AM 37.4 °F 34.9 °F 35.6 °F 93% 29.94 in 10.0 mi NNE 3.5 mph - N/A   Overcast
10:53 AM 39.2 °F 37.0 °F 33.8 °F 81% 29.95 in 10.0 mi East 3.5 mph - N/A   Overcast
10:55 AM 39.0 °F 36.8 °F 34.0 °F 82% 29.96 in 10.0 mi ESE 3.5 mph - N/A   Overcast
11:55 AM 41.0 °F 38.0 °F 35.1 °F 79% 29.96 in 10.0 mi ENE 4.6 mph - N/A   Overcast
12:36 PM 41.0 °F 39.0 °F 33.8 °F 76% 29.94 in 10.0 mi NE 3.5 mph - N/A   Overcast
12:46 PM 42.8 °F 40.1 °F 33.8 °F 70% 29.94 in 10.0 mi Variable 4.6 mph - N/A   Mostly Cloudy
12:55 PM 42.1 °F 39.2 °F 34.0 °F 73% 29.96 in 10.0 mi Variable 4.6 mph - N/A   Scattered Clouds
1:55 PM 42.1 °F 37.1 °F 34.0 °F 73% 29.95 in 10.0 mi North 8.1 mph - N/A   Mostly Cloudy
2:55 PM 43.0 °F 40.3 °F 35.1 °F 74% 29.96 in 10.0 mi ENE 4.6 mph - 0.00 in   Mostly Cloudy
3:00 PM - - - N/A% - - North - - N/A   Unknown
3:13 PM 41.0 °F 39.0 °F 33.8 °F 76% 29.94 in 4.0 mi NNE 3.5 mph - 0.03 in Rain Rain
3:38 PM 42.8 °F 40.1 °F 35.6 °F 76% 29.95 in 10.0 mi East 4.6 mph - 0.04 in   Scattered Clouds
3:55 PM 41.0 °F 38.0 °F 35.1 °F 79% 29.97 in 10.0 mi East 4.6 mph - 0.04 in   Partly Cloudy
4:39 PM 41.0 °F 37.1 °F 33.8 °F 76% 29.96 in 10.0 mi East 5.8 mph - 0.00 in Rain Light Rain
4:55 PM 41.0 °F 38.0 °F 34.0 °F 76% 29.98 in 10.0 mi ESE 4.6 mph - 0.00 in Rain Light Rain
5:50 PM 39.2 °F 35.9 °F 33.8 °F 81% 29.98 in 10.0 mi East 4.6 mph - 0.00 in   Overcast
5:55 PM 39.9 °F 35.8 °F 33.1 °F 77% 30.00 in 10.0 mi East 5.8 mph - 0.00 in   Mostly Cloudy
6:00 PM - - - N/A% - - North - - N/A   Unknown
6:12 PM 39.2 °F - 33.8 °F 81% 30.00 in 10.0 mi Calm Calm - N/A   Mostly Cloudy
6:40 PM 39.2 °F 37.0 °F 32.0 °F 75% 30.01 in 10.0 mi Variable 3.5 mph - N/A   Overcast
6:55 PM 39.9 °F 36.7 °F 33.1 °F 77% 30.03 in 10.0 mi SSE 4.6 mph - N/A   Overcast
7:14 PM 39.2 °F - 33.8 °F 81% 30.03 in 10.0 mi Calm Calm - N/A   Overcast
7:55 PM 37.9 °F 35.5 °F 34.0 °F 86% 30.06 in 10.0 mi SW 3.5 mph - 0.00 in   Mostly Cloudy
8:00 PM - - - N/A% - - North - - N/A   Unknown
8:38 PM 37.4 °F 34.9 °F 33.8 °F 87% 30.05 in 10.0 mi SSE 3.5 mph - 0.00 in   Overcast
8:55 PM 37.9 °F - 33.1 °F 83% 30.08 in 10.0 mi Calm Calm - 0.00 in   Overcast
9:55 PM 36.0 °F - 32.0 °F 86% 30.10 in 10.0 mi Calm Calm - N/A   Partly Cloudy
10:00 PM - - - N/A% - - North - - N/A   Unknown
10:55 PM 34.0 °F - 30.9 °F 89% 30.11 in 10.0 mi Calm Calm - N/A   Mostly Cloudy
11:00 PM - - - N/A% - - North - - N/A   Unknown
11:55 PM 33.1 °F - 30.0 °F 89% 30.10 in 10.0 mi Calm Calm - N/A   Clear